Regional Weather Roundup
Issued by NWS

Home | Current Version | Previous Version | Text Only | Print | Product List | Glossary On
Versions: 1 2 3 4 5 6 7 8 9 10 11 12 13 14 15 16 17 18 19 20 21 22 23 24 25 26 27 28 29 30 31 32 33 34 35 36 37 38 39 40 41 42 43 44 45 46 47 48 49 50
000
ASPQ40 PGUM 251812
RWRPQ
WEATHER ROUNDUP FOR THE MARIANAS AND MICRONESIA
NATIONAL WEATHER SERVICE TIYAN GU
400 AM CHST SAT JUL 26 2014

GUZ001>004-251900-
MARIANA ISLANDS-

CITY           SKY/WX    TMP DP  RH WIND       PRES   REMARKS
GUAM AIRPORT   CLEAR     77  75  94 CALM      29.83R
ANDERSEN AFB   LGT RAIN  77  75  94 SW8       29.83R
ROTA AIRPORT   NOT AVBL
TINIAN AP      NOT AVBL
SAIPAN AP      CLOUDY    79  79 100 E6        29.81S

$$

PMZ161-251900-
REPUBLIC OF PALAU-

CITY           SKY/WX    TMP DP  RH WIND       PRES   REMARKS
KOROR AP       LGT RAIN  79  79 100 W21G26    29.70F
KOROR WSO      LGT RAIN  77  73  88 W23       29.71F

$$

PMZ171>174-251900-
FEDERATED STATES OF MICRONESIA-

CITY           SKY/WX    TMP DP  RH WIND       PRES   REMARKS
YAP AIRPORT    CLOUDY    81  77  89 S12G21    29.70F
CHUUK AP       CLOUDY    82  77  83 SW9       29.82R HX  91
POHNPEI AP     NOT AVBL
POHNPEI WSO    CLOUDY    77  75  94 S6        29.84S
KOSRAE AP      NOT AVBL

$$

PMZ181-251900-
REPUBLIC OF THE MARSHALL ISLANDS-

CITY           SKY/WX    TMP DP  RH WIND       PRES   REMARKS
KWAJALEIN AP   DRIZZLE   82  75  78 SE5       29.84S
MAJURO AP      NOT AVBL
MAJURO WSO     MOCLDY    82  77  83 S16       29.82R HX  91

$$



USA.gov is the U.S. government's official web portal to all federal, state and local government web resources and services.